South Beach, OR

11:52 PM PDT on July 29, 2016 (GMT -0700)
Newport Municipal

Weather History for KONP - December, 2013

Change the Weather History Date:

Sunday, December 1, 2013

  Actual Average Record
Temperature  
Mean Temperature 50 °F -  
Max Temperature 51 °F 50 °F 71 °F (2002)
Min Temperature 50 °F 41 °F 32 °F (2007)
Degree Days  
Heating Degree Days 14    
Moisture  
Dew Point 51 °F    
Average Humidity 100    
Maximum Humidity 100    
Minimum Humidity 94    
Precipitation  
Precipitation 0.65 in - - ()
Sea Level Pressure  
Sea Level Pressure 30.23 in    
Wind  
Wind Speed 21 mph (SSW)    
Max Wind Speed 28 mph    
Max Gust Speed 36 mph    
Visibility 2 miles    
Events Fog , Rain    
Averages and records for this station are not official NWS values.
T = Trace of Precipitation, MM = Missing Value Source: NWS Daily Summary

Daily Weather History Graph

Daily Weather History Graph

Search for Another Location

Airport or City:

Trip Planner

Search our weather history database for the weather conditions in past years. The results will help you decide how hot, cold, wet, or windy it might be!

Date:

Astronomy

Dec. 01, 2013 Rise Set
Actual Time 7:33 AM PST 4:37 PM PST
Civil Twilight 7:00 AM PST 5:10 PM PST
Nautical Twilight 6:24 AM PST 5:46 PM PST
Astronomical Twilight 5:48 AM PST 6:21 PM PST
Moon 5:54 AM PST (12/1) 3:54 PM PST (12/1)
Length of Visible Light 10h 09m
Length of Day
9h 04m
Waning Crescent, 2% of the Moon is Illuminated
Dec 1
Waning Crescent
Dec 2
New
Dec 9
First Quarter
Dec 17
Full
Dec 25
Last Quarter

Hourly Weather History & Observations

Time (PST) Temp. Dew Point Humidity Pressure Visibility Wind Dir Wind Speed Gust Speed Precip Events Conditions
12:15 AM 50.0 °F 50.0 °F 100% 30.29 in 3.0 mi South 19.6 mph 26.5 mph N/A   Overcast
12:35 AM 50.0 °F 50.0 °F 100% 30.29 in 3.0 mi South 19.6 mph 26.5 mph N/A   Overcast
12:55 AM 50.0 °F 50.0 °F 100% 30.29 in 5.0 mi SSW 19.6 mph 26.5 mph N/A   Overcast
1:15 AM 50.0 °F 50.0 °F 100% 30.29 in 3.0 mi SSW 19.6 mph 27.6 mph N/A   Overcast
1:35 AM 50.0 °F 50.0 °F 100% 30.29 in 1.5 mi South 20.7 mph 26.5 mph N/A Rain Light Rain
1:55 AM 50.0 °F 50.0 °F 100% 30.28 in 1.5 mi SSW 20.7 mph 27.6 mph N/A Rain Light Rain
2:15 AM 50.0 °F 50.0 °F 100% 30.28 in 1.8 mi South 21.9 mph 27.6 mph 0.01 in Rain Rain
2:35 AM 50.0 °F 50.0 °F 100% 30.27 in 2.0 mi South 20.7 mph 28.8 mph 0.02 in Rain Light Rain
2:55 AM 50.0 °F 50.0 °F 100% 30.27 in 2.0 mi South 23.0 mph 27.6 mph 0.03 in Rain Rain
3:15 AM 50.0 °F 50.0 °F 100% 30.28 in 3.0 mi South 21.9 mph 29.9 mph 0.01 in Rain Light Rain
3:35 AM 50.0 °F 50.0 °F 100% 30.27 in 4.0 mi SSW 23.0 mph 27.6 mph 0.01 in Rain Light Rain
3:55 AM 50.0 °F 50.0 °F 100% 30.27 in 4.0 mi South 23.0 mph 28.8 mph 0.01 in   Overcast
4:15 AM 51.8 °F 50.0 °F 94% 30.26 in 1.8 mi SSW 21.9 mph 31.1 mph N/A Rain Light Rain
4:35 AM 51.8 °F 50.0 °F 94% 30.27 in 1.2 mi SSW 21.9 mph 28.8 mph N/A   Light Drizzle
4:55 AM 51.8 °F 50.0 °F 94% 30.27 in 1.0 mi SSW 18.4 mph 27.6 mph N/A Rain Light Rain
5:15 AM 51.8 °F 50.0 °F 94% 30.26 in 0.8 mi South 20.7 mph 27.6 mph N/A Rain Light Rain
5:35 AM 50.0 °F 50.0 °F 100% 30.27 in 1.0 mi SSW 19.6 mph 28.8 mph N/A Rain Light Rain
5:55 AM 50.0 °F 50.0 °F 100% 30.27 in 1.2 mi South 21.9 mph 26.5 mph 0.01 in Rain Rain
6:15 AM 51.8 °F 50.0 °F 94% 30.27 in 1.2 mi South 21.9 mph 26.5 mph N/A Rain Light Rain
6:35 AM 51.8 °F 51.8 °F 100% 30.27 in 1.2 mi SSW 23.0 mph 29.9 mph N/A Rain Light Rain
6:55 AM 51.8 °F 51.8 °F 100% 30.27 in 0.8 mi South 20.7 mph 27.6 mph 0.01 in Rain Rain
7:15 AM 51.8 °F 51.8 °F 100% 30.28 in 1.0 mi SSW 21.9 mph 31.1 mph N/A Rain Light Rain
7:35 AM 51.8 °F 51.8 °F 100% 30.28 in 1.8 mi SSW 19.6 mph 26.5 mph 0.03 in Rain Rain
7:55 AM 51.8 °F 51.8 °F 100% 30.29 in 1.8 mi SSW 19.6 mph 25.3 mph 0.06 in Rain Rain
8:15 AM 51.8 °F 51.8 °F 100% 30.30 in 1.5 mi SSW 19.6 mph 25.3 mph 0.03 in Rain Rain
8:35 AM 51.8 °F 51.8 °F 100% 30.29 in 1.5 mi SSW 21.9 mph - 0.05 in Rain Light Rain
8:55 AM 51.8 °F 51.8 °F 100% 30.30 in 1.8 mi SSW 18.4 mph 26.5 mph 0.06 in Rain Light Rain
9:15 AM 51.8 °F 51.8 °F 100% 30.31 in 1.2 mi SSW 17.3 mph 24.2 mph 0.02 in Rain Rain
9:35 AM 51.8 °F 51.8 °F 100% 30.30 in 1.5 mi SSW 19.6 mph 24.2 mph 0.04 in Rain Light Rain
9:55 AM 51.8 °F 51.8 °F 100% 30.29 in 1.2 mi SSW 17.3 mph 24.2 mph 0.04 in Rain Light Rain
10:15 AM 51.8 °F 51.8 °F 100% 30.30 in 1.2 mi SSW 18.4 mph 24.2 mph 0.01 in Rain Heavy Rain
10:35 AM 51.8 °F 51.8 °F 100% 30.30 in 1.2 mi SSW 17.3 mph 25.3 mph 0.03 in Rain Rain
10:55 AM 51.8 °F 51.8 °F 100% 30.30 in 1.2 mi SSW 18.4 mph 24.2 mph 0.05 in Rain Light Rain
11:15 AM 51.8 °F 51.8 °F 100% 30.28 in 1.0 mi SSW 17.3 mph 24.2 mph 0.01 in Rain Light Rain
11:35 AM 51.8 °F 51.8 °F 100% 30.27 in 0.5 mi South 20.7 mph 26.5 mph 0.01 in Fog Fog
11:55 AM 51.8 °F 51.8 °F 100% 30.27 in 0.8 mi SSW 18.4 mph 23.0 mph 0.01 in Rain Light Rain
12:15 PM 51.8 °F 51.8 °F 100% 30.25 in 0.5 mi SSW 19.6 mph 24.2 mph N/A   Light Drizzle
12:35 PM 51.8 °F 51.8 °F 100% 30.24 in 0.5 mi SSW 19.6 mph 24.2 mph N/A Fog Fog
12:55 PM 51.8 °F 51.8 °F 100% 30.24 in 0.2 mi SSW 17.3 mph 26.5 mph N/A   Drizzle
1:15 PM 51.8 °F 51.8 °F 100% 30.25 in 0.5 mi SSW 15.0 mph 25.3 mph 0.01 in Rain Light Rain
1:35 PM 51.8 °F 51.8 °F 100% 30.24 in 0.5 mi SSW 18.4 mph 25.3 mph 0.01 in Fog Fog
1:55 PM 51.8 °F 51.8 °F 100% 30.23 in 0.5 mi SSW 18.4 mph 27.6 mph 0.01 in Rain Light Rain
2:15 PM 51.8 °F 51.8 °F 100% 30.22 in 0.2 mi SSW 17.3 mph - 0.01 in Rain Rain
2:35 PM 51.8 °F 51.8 °F 100% 30.23 in 0.2 mi SSW 17.3 mph 25.3 mph 0.01 in Rain Light Rain
2:55 PM 51.8 °F 51.8 °F 100% 30.22 in 0.5 mi SSW 20.7 mph 26.5 mph 0.01 in Rain Light Rain
3:15 PM 51.8 °F 51.8 °F 100% 30.21 in 0.5 mi SSW 19.6 mph 25.3 mph N/A Rain Light Rain
3:35 PM 51.8 °F 51.8 °F 100% 30.21 in 0.5 mi SSW 20.7 mph 25.3 mph 0.01 in Rain Rain
3:55 PM 51.8 °F 51.8 °F 100% 30.20 in 0.8 mi SSW 21.9 mph 28.8 mph 0.02 in Rain Light Rain
4:15 PM 51.8 °F 51.8 °F 100% 30.20 in 0.5 mi SSW 24.2 mph 29.9 mph 0.01 in Rain Rain
4:35 PM 51.8 °F 51.8 °F 100% 30.19 in 1.5 mi SSW 21.9 mph 28.8 mph 0.01 in   Overcast
4:55 PM 51.8 °F 51.8 °F 100% 30.19 in 0.8 mi SSW 20.7 mph 26.5 mph 0.01 in Rain Rain
5:15 PM 51.8 °F 51.8 °F 100% 30.18 in 0.8 mi SSW 25.3 mph 32.2 mph 0.01 in Rain Light Rain
5:35 PM 51.8 °F 51.8 °F 100% 30.18 in 1.2 mi SSW 21.9 mph 29.9 mph 0.02 in Rain Light Rain
5:55 PM 51.8 °F 51.8 °F 100% 30.17 in 1.5 mi SSW 20.7 mph 29.9 mph 0.03 in Rain Light Rain
6:15 PM 51.8 °F 51.8 °F 100% 30.17 in 2.0 mi SSW 21.9 mph 28.8 mph N/A Rain Light Rain
6:35 PM 51.8 °F 51.8 °F 100% 30.16 in 2.5 mi SSW 23.0 mph 29.9 mph 0.01 in Rain Light Rain
6:55 PM 51.8 °F 51.8 °F 100% 30.17 in 3.0 mi SSW 20.7 mph 29.9 mph 0.01 in Rain Light Rain
7:15 PM 51.8 °F 51.8 °F 100% 30.17 in 5.0 mi SSW 24.2 mph 34.5 mph N/A   Overcast
7:35 PM 51.8 °F 51.8 °F 100% 30.17 in 5.0 mi SSW 25.3 mph 33.4 mph N/A   Overcast
7:55 PM 51.8 °F 51.8 °F 100% 30.16 in 4.0 mi SSW 19.6 mph 35.7 mph 0.01 in   Overcast
8:15 PM 51.8 °F 51.8 °F 100% 30.16 in 2.5 mi SSW 26.5 mph 33.4 mph N/A   Overcast
8:35 PM 51.8 °F 51.8 °F 100% 30.16 in 1.5 mi SSW 25.3 mph 32.2 mph 0.01 in Rain Light Rain
8:55 PM 51.8 °F 51.8 °F 100% 30.10 in 1.2 mi SSW 25.3 mph 35.7 mph 0.02 in Rain Light Rain
9:15 PM 51.8 °F 51.8 °F 100% 30.10 in 1.0 mi SSW 26.5 mph 34.5 mph 0.01 in Rain Light Rain
9:35 PM 51.8 °F 51.8 °F 100% 30.11 in 1.5 mi SW 27.6 mph 34.5 mph 0.02 in Rain Rain
9:55 PM 51.8 °F 51.8 °F 100% 30.12 in 2.0 mi SSW 24.2 mph 34.5 mph 0.05 in Rain Rain
10:15 PM 51.8 °F 51.8 °F 100% 30.13 in 1.8 mi SSW 26.5 mph 31.1 mph 0.03 in Rain Rain
10:35 PM 51.8 °F 51.8 °F 100% 30.08 in 1.5 mi SW 23.0 mph 32.2 mph 0.07 in Rain Light Rain
10:55 PM 51.8 °F 51.8 °F 100% 30.09 in 1.5 mi SW 23.0 mph 32.2 mph 0.10 in Rain Light Rain
11:15 PM 51.8 °F 51.8 °F 100% 30.09 in 1.2 mi SW 21.9 mph - 0.01 in Rain Light Rain
11:35 PM 51.8 °F 51.8 °F 100% 30.10 in 1.2 mi SW 21.9 mph 29.9 mph 0.05 in Rain Rain
11:55 PM 51.8 °F 51.8 °F 100% 30.09 in 1.5 mi West 18.4 mph 26.5 mph 0.10 in Rain Heavy Rain